Regional Weather Roundup
Issued by NWS Albany, NY

Home | Current Version | Previous Version | Text Only | Print | Product List | Glossary On
Versions: 1 2 3 4 5 6 7 8 9 10 11 12 13 14 15 16 17 18 19 20 21 22 23 24 25 26 27 28 29 30 31 32 33 34 35 36 37 38 39 40 41 42 43 44 45 46 47 48 49 50
000
ASUS41 KALY 190510
RWRALY

NEW YORK STATE HOURLY WEATHER ROUNDUP
NATIONAL WEATHER SERVICE ALBANY NY
100 AM EDT SUN APR 19 2015

NOTE: "FAIR" INDICATES FEW OR NO CLOUDS BELOW 12,000 FEET WITH NO
SIGNIFICANT WEATHER AND/OR NO OBSTRUCTIONS TO VISIBILITY.

NYZ032-033-038>043-046>054-057>066-NYZ062>081-190600-
EAST


CITY           SKY/WX    TMP DP  RH WIND       PRES   REMARKS
ALBANY         CLEAR     47  30  51 NE6       30.15R
GLENS FALLS    CLEAR     43  33  68 N10       30.16R
POUGHKEEPSIE   PTCLDY    56  20  24 NE14      30.12R
NEWBURGH       CLEAR     55  28  35 NE9       30.11R
MONTGOMERY     PTCLDY    53  25  33 N7        30.11R
WHITE PLAINS   PTCLDY    59  24  26 N12G20    30.07R
ISLIP          MOCLDY    58  29  33 N9        30.06R
NEW YORK CITY  PTCLDY    62  29  28 N9        30.07R
CENTRAL PARK   PTCLDY    63  25  23 N8        30.10R
$$

NYZ005>009-017-018-044>046-055-056-190600-
CENTRAL


CITY           SKY/WX    TMP DP  RH WIND       PRES   REMARKS
FULTON         CLEAR     45  29  53 N10       30.19R
SYRACUSE       CLEAR     44  29  55 CALM      30.19R
ROME           CLEAR     47  27  45 N12       30.18R
ELMIRA         PTCLDY    36  30  79 CALM      30.15S
BINGHAMTON     CLEAR     46  24  42 NE9       30.14S
MONTICELLO     PTCLDY    48  23  37 N9        30.14R
$$

NYZ026>034-041>043-190600-
NORTH


CITY           SKY/WX    TMP DP  RH WIND       PRES   REMARKS
WATERTOWN      CLEAR     44  29  55 N15       30.23R
FORT DRUM      NOT AVBL
MASSENA        CLEAR     40  26  57 N8        30.25R WCI  34
SARANAC LAKE   CLEAR     33  26  75 CALM      30.16S
PLATTSBURGH    CLEAR     41  29  62 NW12      30.21R
$$

NYZ001>004-010>016-019>021-190600-
WEST


CITY           SKY/WX    TMP DP  RH WIND       PRES   REMARKS
NIAGARA FALLS  PTCLDY    44  29  55 NE9       30.17S
BUFFALO        PTCLDY    47  26  44 NE9       30.17R
DUNKIRK        PTCLDY    43  28  55 NE3       30.16S
JAMESTOWN      PTCLDY    46  21  36 NE3       30.15S
WELLSVILLE     PTCLDY    46  21  37 NE6       30.15F
ROCHESTER      CLEAR     47  27  45 E10       30.20S
PENN YAN       CLEAR     47  27  45 NE5       30.18S
$$

             KEY
       WCI = WIND CHILL INDEX
       VSB = VISIBILITY
       HX  = HEAT INDEX
$$



USA.gov is the U.S. government's official web portal to all federal, state and local government web resources and services.